Theta_e
301 293 290 290 292 293 295 296 295 292 294 294 292 290 290 290 290 290 289 291 291 290 289 290 289 288 290 292 294 297 291 290 290 291 293 293 292 295 298 300 303 306 309 312 312 313 314 316 318 320 321 321 321 322 323 322 322 323 324 323 322 324 325 327 328 329 329 326 326 328 327 326 328 328 328 327 328 328 328 327 327 327 327 327 325 323
300 293 292 295 296 295 295 295 292 292 293 293 291 289 289 287 288 289 288 290 291 290 287 288 288 289 289 291 293 295 290 292 292 292 292 292 293 293 295 298 299 303 304 302 305 306 308 313 315 318 320 318 319 320 321 322 322 323 323 323 323 323 324 326 328 329 329 330 329 327 328 328 328 328 326 327 328 328 327 327 327 327 327 327 326 323
292 292 296 298 298 297 295 295 293 293 291 291 291 288 288 288 287 289 290 291 291 290 288 289 288 289 289 291 293 294 293 294 294 294 294 293 293 292 292 293 296 298 299 300 303 303 306 309 312 316 318 319 320 320 320 322 322 322 322 323 323 324 324 325 326 328 328 330 330 330 329 329 327 328 330 330 329 328 328 327 327 327 327 327 326 325
288 292 297 298 297 296 293 294 293 292 292 289 287 286 288 288 289 287 291 290 291 289 288 286 285 288 289 290 291 294 293 292 292 292 293 292 293 293 293 294 295 295 297 298 300 301 303 306 310 313 316 318 319 319 320 320 321 322 322 323 323 324 324 324 325 324 328 328 329 329 327 328 329 327 324 328 328 328 328 327 328 327 327 327 326 326
291 295 298 296 296 296 293 292 292 292 290 290 289 287 285 286 288 288 287 289 290 289 290 288 287 288 288 288 290 293 292 292 294 290 291 291 291 294 293 292 293 294 296 298 299 298 301 303 306 310 313 316 317 319 320 320 320 322 322 323 323 324 324 324 324 324 326 324 322 324 320 319 321 320 325 326 326 327 326 327 327 327 327 327 326 327
289 294 297 294 292 293 291 290 292 292 289 289 289 289 288 288 288 289 290 288 286 286 289 288 282 286 288 288 290 293 289 288 289 290 292 293 292 291 291 293 294 294 295 297 298 299 299 302 305 307 309 312 315 317 320 321 321 321 322 323 323 324 324 324 324 325 325 324 325 323 323 320 322 322 321 321 324 326 326 326 328 327 327 327 326 327
293 293 296 293 292 291 291 291 291 293 289 288 289 291 290 290 290 290 289 289 283 282 289 289 285 284 284 286 288 289 290 291 292 290 291 292 293 292 292 293 293 294 295 295 296 296 296 299 302 304 308 311 313 316 318 319 320 321 322 322 323 324 324 324 323 324 322 324 324 325 325 325 324 323 324 326 327 327 328 327 326 327 327 327 327 326
291 292 293 293 292 290 289 288 290 293 289 287 290 292 290 289 289 289 290 288 285 287 288 286 286 282 283 289 288 286 286 288 289 291 290 290 291 292 293 293 293 295 295 296 296 296 296 297 299 302 306 309 312 314 316 318 320 320 321 321 322 323 322 324 323 323 323 324 324 324 325 325 325 325 325 326 325 324 324 325 326 326 326 327 327 327
292 290 291 290 290 289 289 290 291 293 290 288 290 292 290 290 290 290 289 286 284 283 281 284 284 281 283 285 284 284 287 287 287 289 291 291 291 292 293 294 294 295 296 296 297 296 295 296 297 300 302 307 310 312 314 316 318 320 321 320 321 322 322 322 322 321 322 323 324 324 324 324 324 325 324 319 317 321 322 324 325 325 325 325 326 327
290 293 293 293 291 289 290 290 292 293 290 290 293 294 292 292 291 290 286 286 285 281 281 283 283 281 284 282 287 285 285 288 289 288 290 291 292 293 294 294 295 296 296 296 296 297 296 295 296 297 298 300 308 311 313 314 315 317 319 319 319 320 322 322 321 320 321 322 321 323 323 323 323 322 319 315 316 318 320 323 324 324 325 325 325 326
290 295 298 294 291 292 292 291 294 295 292 292 292 291 290 288 286 285 285 285 284 279 282 284 283 282 278 282 287 285 289 291 287 288 288 287 288 290 292 294 295 296 296 295 294 293 293 292 293 293 296 299 301 307 311 312 313 315 317 318 318 320 321 320 321 320 320 321 322 322 322 322 322 321 320 317 315 316 318 321 322 323 324 324 324 324
290 293 293 292 294 291 294 290 292 295 293 293 289 288 288 285 285 284 283 285 279 279 283 285 284 282 279 281 284 289 285 284 291 291 293 293 290 291 292 293 293 293 293 293 292 293 293 292 291 290 295 296 298 303 308 311 312 313 315 316 317 318 319 320 320 320 320 321 321 322 322 322 322 321 320 319 318 317 318 319 321 321 322 322 323 323
286 288 289 290 293 294 291 290 288 292 291 292 290 289 284 280 281 277 280 277 278 278 281 277 282 282 281 287 285 285 287 287 285 287 291 292 291 289 289 290 292 291 291 292 292 293 293 293 293 292 294 294 296 301 306 309 311 312 314 315 316 317 318 319 319 319 319 320 320 321 321 322 321 321 320 319 318 317 316 318 319 319 320 321 320 321
285 287 288 289 290 293 293 287 283 284 288 289 288 286 283 278 276 275 278 274 273 278 280 279 282 282 288 286 289 292 295 291 288 287 288 290 291 290 290 290 289 290 290 292 292 292 293 294 294 294 294 295 296 298 302 306 309 311 312 314 315 317 318 318 318 319 319 319 320 321 321 322 321 321 321 320 319 318 316 317 318 319 320 320 320 320
281 281 286 287 285 291 293 291 289 286 288 289 291 289 284 281 276 274 275 275 276 278 279 280 279 279 280 285 286 293 295 298 293 290 289 288 289 291 289 289 290 290 291 293 294 293 293 294 294 294 294 294 295 296 299 303 306 309 310 312 313 315 315 316 317 318 318 319 320 320 320 321 321 321 320 320 319 318 315 314 316 318 319 320 320 321
284 284 285 290 288 291 290 291 292 289 287 288 289 289 284 283 282 276 273 277 275 275 274 276 280 281 284 286 288 287 287 288 289 289 287 289 290 289 290 291 292 293 294 293 294 295 294 293 291 292 293 294 294 295 296 299 303 306 309 310 312 313 315 315 315 317 318 319 319 319 319 319 318 316 318 317 314 316 316 314 315 315 317 319 320 320
283 282 286 286 287 290 290 289 289 292 281 286 288 285 286 287 285 278 277 279 274 273 277 275 279 283 282 290 294 291 286 288 287 288 288 289 289 288 291 293 293 294 294 294 295 296 296 292 292 292 292 293 294 294 296 298 301 304 306 308 309 311 311 313 313 315 316 317 316 317 318 318 317 317 317 318 315 314 313 313 313 313 314 316 318 318
285 281 284 287 284 287 286 292 290 292 289 288 283 287 288 287 286 283 277 274 273 272 274 274 280 280 278 281 287 292 288 289 288 288 289 289 287 288 291 292 293 294 294 294 294 295 295 294 294 293 293 294 295 295 295 296 297 300 303 305 307 308 309 310 311 312 314 314 315 315 316 316 317 317 317 317 314 312 311 311 311 310 310 313 315 316
288 279 283 283 285 288 289 290 288 289 287 289 287 291 288 280 281 280 277 273 270 270 269 271 276 277 280 285 282 284 289 292 293 291 287 289 289 289 290 292 292 293 292 292 293 294 294 293 293 293 294 294 294 295 296 295 296 296 296 300 303 306 308 309 310 310 311 313 314 315 314 314 315 316 316 314 312 311 311 311 310 310 311 310 309 311
286 279 281 285 285 287 288 289 282 286 287 287 288 289 287 284 282 278 281 274 276 273 270 271 272 279 284 282 285 287 284 288 290 289 289 289 290 292 292 293 293 292 291 291 292 293 293 293 292 293 294 294 295 294 295 294 293 295 296 296 298 298 300 301 305 306 309 310 311 311 310 311 313 313 315 313 312 311 311 311 310 310 308 309 307 310
284 284 277 283 285 287 283 286 285 287 284 284 284 285 285 284 283 282 280 280 278 268 267 269 271 279 281 285 287 290 291 291 289 290 289 290 291 291 291 291 292 291 290 290 290 290 290 291 291 291 292 293 292 293 293 295 296 297 296 296 297 299 300 302 304 305 307 307 309 309 310 310 311 312 312 311 311 311 311 311 308 310 310 307 306 307
282 282 280 281 282 283 284 287 287 290 290 288 287 285 287 284 281 280 278 279 274 275 271 268 275 282 280 285 290 290 293 294 295 292 292 290 289 289 289 289 288 290 290 288 288 288 290 289 290 289 290 289 290 291 292 294 294 295 296 298 298 299 300 302 303 304 306 306 308 308 309 309 308 310 310 311 311 311 310 309 307 307 304 305 305 305
284 283 283 279 280 282 286 285 285 284 289 290 289 287 288 288 284 279 277 276 275 276 273 270 270 280 287 288 289 290 291 292 295 294 291 291 289 287 287 287 287 287 288 288 288 289 289 289 288 289 290 291 292 294 292 292 295 297 296 296 297 298 299 299 300 301 302 304 305 306 306 306 307 308 308 309 308 308 307 306 304 303 304 304 302 300
291 281 281 278 283 284 286 284 285 286 289 287 287 286 286 285 286 282 278 276 280 275 276 275 273 280 285 284 286 285 285 288 289 288 288 288 288 287 286 286 287 288 289 290 289 288 289 286 285 287 289 290 292 292 293 294 294 294 294 295 295 297 296 297 298 299 301 302 304 304 303 305 304 304 306 307 306 306 305 305 304 302 304 303 301 301
285 280 283 276 275 278 282 285 285 286 286 286 286 284 284 284 285 281 280 278 278 278 277 275 276 276 286 283 283 284 284 288 290 287 285 287 289 288 287 287 286 287 288 289 289 288 289 289 289 289 289 290 291 291 292 294 294 294 293 293 295 296 295 297 297 299 299 301 302 302 303 303 303 304 304 305 304 304 303 302 302 300 303 301 300 300
281 284 284 278 275 274 273 276 278 282 284 282 279 284 285 286 284 283 281 276 278 278 280 277 280 281 281 283 287 285 283 286 288 287 285 286 287 287 287 287 287 286 288 288 288 288 291 289 287 286 287 289 289 291 292 293 293 293 293 295 293 295 294 295 295 299 301 301 302 302 302 302 302 303 304 304 303 302 301 300 300 299 299 300 301 298
280 283 286 285 283 281 283 283 285 287 284 283 283 285 284 285 286 286 281 279 281 281 281 284 284 281 284 286 284 287 283 286 289 287 286 288 289 288 285 286 285 286 287 288 289 289 287 287 289 290 288 290 289 289 290 291 292 292 292 292 291 294 297 296 296 299 301 301 302 302 302 302 302 303 303 302 302 301 300 299 299 299 299 298 299 297
281 283 284 285 285 285 281 281 286 288 285 284 283 284 285 284 285 285 284 283 286 280 280 286 285 284 283 282 284 285 286 285 286 288 288 286 286 288 288 286 288 286 286 285 286 288 290 290 288 288 289 288 290 289 288 288 290 293 293 294 293 293 295 295 297 299 301 301 302 302 302 302 302 302 302 302 301 300 300 299 298 299 298 296 297 296
286 284 285 285 285 284 282 285 286 287 286 285 285 285 284 286 286 285 286 288 286 283 282 284 284 285 285 285 286 286 287 289 290 289 287 286 285 285 285 286 287 287 287 287 288 288 287 289 289 289 289 289 288 289 289 289 289 289 290 291 292 293 295 294 297 298 300 300 301 302 301 300 299 300 299 299 299 298 298 298 297 297 296 295 296 295
288 284 283 285 285 283 281 284 285 286 285 285 286 286 287 286 286 287 287 289 288 286 287 281 283 284 286 288 287 288 286 286 286 284 284 285 285 285 285 285 287 287 287 288 289 288 289 290 290 290 289 288 289 289 289 289 290 291 292 292 291 292 294 294 296 298 299 300 300 299 298 298 296 297 296 297 297 296 295 295 294 294 293 295 294 293
290 284 288 282 280 279 281 282 283 284 284 284 285 287 287 287 287 287 288 288 288 287 288 284 281 282 284 285 286 285 283 284 285 287 288 286 285 285 286 286 287 287 288 288 289 289 287 287 288 289 289 291 291 290 290 291 290 289 290 290 291 292 293 294 295 296 297 299 298 297 296 295 294 293 294 296 295 293 293 294 292 292 293 292 292 292
289 278 283 281 280 275 278 280 280 280 282 283 283 284 285 285 284 286 286 288 285 285 286 285 283 285 285 287 286 286 286 286 287 287 287 287 285 284 285 287 287 287 288 289 289 288 287 287 287 288 290 291 290 289 289 289 289 288 290 290 291 291 290 292 294 296 295 295 295 295 296 294 294 293 294 293 294 293 293 292 291 292 291 291 290 290
284 279 279 279 281 274 277 279 279 278 279 275 280 285 286 287 288 288 287 287 289 289 285 284 285 286 289 291 290 286 285 286 286 286 288 287 286 285 286 287 288 288 288 288 288 288 289 290 290 289 288 287 288 289 288 288 288 290 290 290 290 288 289 292 293 295 295 293 294 294 294 293 293 293 292 292 292 291 291 290 291 291 290 290 289 289
284 284 277 282 281 273 275 279 279 277 274 278 289 290 289 287 287 285 286 287 288 288 289 291 288 286 289 289 291 291 288 287 289 291 291 292 289 285 286 288 288 289 287 288 288 290 290 288 289 289 287 287 287 287 287 287 289 289 288 288 287 289 290 291 292 293 294 293 293 293 292 292 292 292 292 291 290 290 290 290 290 290 289 289 288 289
286 285 282 280 277 273 274 278 279 275 277 288 287 290 290 290 289 288 289 289 289 290 291 290 290 285 289 290 291 292 293 293 292 291 290 288 289 289 290 289 289 289 290 290 290 288 288 288 288 288 288 288 287 286 286 286 287 285 286 287 288 287 289 290 291 291 292 292 292 291 291 291 291 292 291 290 290 289 289 290 289 289 288 289 289 289
286 287 280 276 277 275 275 281 274 276 286 286 284 283 287 291 290 288 286 289 290 290 290 289 292 289 287 288 289 291 293 291 288 287 288 288 286 290 288 290 291 290 290 292 291 290 287 287 288 288 289 287 286 285 286 287 286 287 286 286 288 286 287 288 290 291 291 291 290 291 291 291 291 290 290 289 289 289 289 289 289 288 288 288 288 288
291 288 285 278 275 278 277 281 280 280 281 283 283 283 288 286 286 286 283 287 288 289 289 290 290 291 289 288 288 287 285 285 286 290 286 287 287 287 292 294 295 295 292 290 288 287 286 285 286 287 286 285 285 285 286 285 286 286 286 286 286 286 287 287 289 289 290 290 290 290 290 290 291 290 289 289 289 288 289 288 287 287 287 288 288 287
291 287 286 284 274 276 277 271 271 275 276 282 288 286 288 288 288 287 285 287 290 291 293 291 290 291 291 286 285 283 285 287 286 289 292 289 288 290 290 292 292 288 286 286 285 285 283 284 284 284 285 285 284 284 284 284 286 286 286 286 285 286 286 287 289 289 289 289 288 289 289 290 290 290 288 288 288 288 288 288 287 287 288 288 287 287
285 286 288 286 277 274 275 277 276 275 280 284 282 286 287 289 290 288 281 283 288 290 291 292 291 291 290 289 287 285 285 284 287 291 293 293 292 291 291 291 287 286 286 285 287 286 285 285 284 284 283 284 285 284 283 284 285 286 286 285 285 286 287 288 288 287 287 286 285 285 286 287 288 289 288 288 288 288 287 287 287 287 287 287 287 287
283 280 281 276 273 279 281 276 278 277 279 279 282 283 287 289 291 287 272 281 284 290 291 291 291 291 291 291 288 288 289 286 289 293 295 294 290 287 289 290 288 288 287 284 283 284 284 282 284 284 284 285 286 282 283 284 285 285 285 284 284 285 287 286 286 285 284 284 284 284 284 285 286 287 288 287 287 287 287 287 286 286 287 287 287 286
277 275 279 281 279 276 282 272 269 277 281 279 279 283 286 292 290 280 277 285 286 287 289 291 291 292 292 289 288 288 291 294 291 287 286 288 289 288 287 287 287 285 286 284 286 284 283 282 285 285 285 283 282 281 282 283 285 285 284 283 283 285 285 284 281 282 282 283 282 282 283 282 283 285 285 287 287 287 286 286 286 286 286 285 285 284
273 274 270 273 274 278 279 279 278 277 279 282 279 286 289 288 276 280 287 281 283 282 282 288 290 288 286 288 288 291 293 287 283 288 287 286 288 291 291 288 284 282 281 281 282 282 283 282 283 282 280 278 279 281 282 283 284 283 282 282 282 283 280 280 280 281 281 281 281 280 280 281 279 282 283 283 285 285 285 285 285 286 285 285 284 283
282 282 279 280 275 270 269 276 269 273 283 286 285 284 285 285 284 285 282 281 281 283 284 284 287 286 288 287 288 290 291 287 287 288 286 283 284 286 287 285 285 285 284 283 282 280 281 282 282 279 276 276 277 279 280 281 281 280 280 281 280 278 278 279 280 280 280 279 279 278 279 278 280 281 281 282 283 284 283 283 284 284 284 284 283 282
286 282 278 279 280 279 278 276 279 284 284 288 289 287 285 286 284 286 286 287 282 282 284 285 284 286 287 289 288 288 288 286 284 285 287 285 282 282 281 280 280 282 281 280 281 281 278 280 277 277 275 275 274 276 279 280 280 278 279 280 277 275 276 277 277 278 278 277 276 277 277 276 278 279 280 281 281 281 281 282 283 283 283 283 283 282
286 286 287 283 284 284 282 285 283 283 287 290 293 293 293 291 283 285 288 289 287 283 283 284 287 284 286 289 288 288 287 286 288 287 287 290 287 283 284 284 283 282 281 282 279 277 277 280 279 276 275 273 272 272 273 276 281 277 279 277 274 275 276 276 276 277 276 275 273 274 272 274 275 277 277 279 280 280 280 280 282 282 282 283 282 282
287 286 282 284 283 283 283 285 282 280 284 289 286 284 292 291 283 282 285 288 286 285 285 289 286 286 285 286 287 283 286 287 287 286 285 286 286 284 281 281 279 278 277 276 275 276 276 275 275 276 276 274 270 271 270 272 276 279 276 275 275 275 275 276 276 275 273 272 272 273 274 274 272 273 274 277 278 280 280 280 281 282 282 282 282 281
281 281 284 283 281 285 282 284 283 284 284 286 290 284 286 288 290 284 283 286 287 284 286 284 286 287 287 285 288 288 287 286 285 286 285 285 284 285 283 283 281 280 280 280 278 275 275 275 277 275 274 275 272 269 269 269 272 273 273 274 274 274 274 275 275 273 272 273 272 271 274 276 275 274 274 274 275 277 279 280 280 280 281 282 281 280
282 281 287 278 281 285 286 284 281 282 286 288 289 288 287 287 286 284 284 284 283 283 284 284 283 284 284 284 287 287 287 285 285 285 285 285 286 285 282 281 281 278 276 275 275 274 274 277 279 276 274 276 273 269 269 269 270 270 272 272 273 273 274 274 274 274 273 271 272 273 273 275 275 275 275 275 277 278 278 278 280 280 281 281 280 279
283 287 284 281 282 283 284 280 281 283 284 286 287 286 285 287 289 287 286 285 284 285 284 282 281 283 285 288 286 285 283 283 285 286 285 286 284 283 283 282 279 279 277 276 274 275 280 278 277 276 275 275 270 268 268 268 269 268 271 273 272 273 275 274 272 271 270 270 271 272 272 274 275 275 276 275 275 274 276 279 280 280 280 280 282 282
287 286 284 285 283 282 285 287 283 284 280 285 285 287 286 285 288 291 288 285 285 285 284 284 282 280 281 282 283 284 286 285 283 282 284 284 285 284 281 279 277 277 276 274 274 273 273 273 274 274 273 272 269 267 267 267 268 268 270 269 270 273 275 273 271 270 269 270 271 271 272 272 273 273 275 275 275 276 274 279 281 279 280 280 281 283
288 288 287 286 286 286 290 286 288 288 286 287 289 288 289 288 287 289 289 289 287 286 285 284 283 281 281 281 280 284 285 285 283 281 281 281 281 280 280 280 278 277 277 274 274 272 273 273 271 271 270 270 267 266 266 267 267 267 268 269 270 271 273 273 272 270 270 270 270 272 273 273 273 273 274 274 275 276 276 276 277 283 283 282 281 283
Wind_Speed
6 9 11 14 11 12 14 16 5 2 3 4 4 4 8 7 2 0 1 1 3 2 7 8 9 8 8 11 13 14 4 4 5 6 8 8 8 9 10 11 12 12 17 8 7 9 9 9 9 9 9 10 9 10 11 11 13 13 13 11 12 10 9 9 10 10 10 9 8 9 10 12 10 8 8 8 8 8 8 7 8 8 8 8 8 8
9 11 16 13 10 11 10 7 4 3 4 6 5 5 6 4 7 1 1 2 2 1 3 3 4 9 10 10 11 12 3 9 9 9 10 11 10 10 10 11 12 16 5 3 8 7 6 9 10 10 10 9 11 12 11 14 14 12 11 12 11 9 10 11 12 10 10 10 10 9 10 8 8 8 8 9 7 8 7 8 8 8 8 8 8 8
10 17 10 6 6 6 7 6 6 7 4 4 5 4 2 5 2 3 3 3 1 2 8 8 11 11 10 11 14 14 11 8 9 11 11 11 10 10 9 11 12 9 9 7 11 6 8 9 9 10 11 12 14 12 14 14 12 13 12 12 11 10 11 11 11 10 11 10 10 10 8 8 5 5 7 7 6 6 7 8 9 9 9 9 8 8
8 10 8 7 7 10 7 9 7 5 4 5 4 6 9 3 6 4 2 3 2 3 2 3 6 8 8 8 13 15 9 8 7 8 10 8 10 11 13 15 13 12 9 11 15 13 9 10 10 11 12 13 10 12 13 12 13 11 11 11 12 12 11 10 11 11 10 10 9 8 7 6 8 6 5 6 6 8 9 10 10 10 10 9 9 8
10 5 9 11 10 12 11 7 10 8 7 3 7 5 4 4 3 2 1 3 5 2 1 5 9 10 9 9 8 10 7 8 12 5 8 8 8 10 7 5 8 14 14 15 15 8 9 10 12 14 15 12 13 15 14 13 13 11 15 15 14 13 12 11 11 13 10 7 6 5 4 3 4 2 6 7 8 9 10 10 10 11 8 9 9 9
0 5 9 10 7 8 8 8 12 10 8 5 3 5 6 7 5 1 2 4 4 5 2 4 4 15 6 10 14 10 3 6 6 8 13 13 11 9 9 12 10 10 10 13 15 13 12 13 12 10 9 11 13 14 15 13 13 14 14 14 14 12 11 12 12 12 10 10 10 9 9 8 9 10 9 11 14 11 10 11 6 6 9 9 8 8
4 5 16 15 13 11 11 11 9 9 7 7 8 10 7 6 6 3 1 2 3 5 1 0 11 11 2 8 8 7 10 14 9 9 12 11 11 8 11 11 11 12 12 11 11 8 7 11 10 10 11 14 15 16 11 9 12 14 14 13 13 12 12 12 11 11 11 11 11 14 14 12 12 13 11 9 8 9 7 4 6 6 6 8 9 8
5 9 6 7 9 11 9 10 8 13 8 7 6 11 7 6 5 4 2 3 3 1 7 3 4 9 11 13 3 3 8 12 11 15 11 10 8 10 11 13 12 13 13 12 14 14 12 10 13 16 17 14 17 14 10 12 13 15 15 13 14 13 12 11 11 12 14 14 13 13 14 13 13 13 13 10 9 5 4 6 7 5 6 8 9 8
13 8 11 10 8 8 12 6 7 11 8 3 7 11 8 9 6 4 3 2 2 3 7 3 1 3 11 4 5 3 9 12 14 14 12 10 11 12 13 14 14 14 14 14 13 13 13 14 14 15 13 14 11 8 13 14 13 13 12 13 12 13 13 12 12 13 14 14 13 13 12 13 12 11 10 6 6 6 6 8 7 7 7 7 8 9
2 14 15 16 13 13 5 7 12 12 8 2 11 8 4 4 2 3 2 2 2 1 14 6 2 5 16 3 8 5 8 18 12 8 12 11 12 14 14 14 15 13 11 11 13 13 10 10 10 9 5 4 11 12 10 9 8 9 10 12 13 15 13 12 12 13 13 13 11 12 14 15 13 10 7 6 7 7 7 9 8 8 8 7 7 8
2 3 11 9 11 4 6 3 9 13 4 6 6 8 5 3 2 3 1 2 0 7 8 6 3 3 10 7 12 9 15 9 3 7 6 5 7 10 11 10 11 11 12 10 8 9 8 6 6 6 11 13 7 7 9 9 10 9 10 12 14 15 11 11 13 13 14 13 13 14 15 16 15 12 10 9 8 7 7 9 9 9 8 7 8 7
4 7 6 3 4 4 7 5 1 8 7 12 3 6 8 2 2 1 1 0 3 10 1 7 7 6 10 5 6 9 1 6 10 11 12 12 11 11 10 10 11 9 7 6 6 9 10 8 7 6 11 11 10 7 10 11 10 10 11 11 14 13 13 12 12 13 14 13 15 15 15 15 15 13 11 13 13 11 11 10 9 7 6 7 7 7
5 6 1 2 2 12 8 10 1 6 4 7 7 8 11 4 3 3 1 5 10 8 2 1 7 1 18 20 3 3 8 8 8 8 10 11 10 8 7 7 7 5 5 6 8 8 7 9 10 10 12 7 8 12 13 13 12 12 12 14 15 16 14 13 13 14 15 14 15 16 15 14 12 13 13 13 12 11 11 10 9 8 9 7 7 8
2 1 3 3 4 5 12 12 6 5 7 8 11 10 9 7 6 7 8 1 4 3 3 3 1 8 12 9 12 11 15 8 8 10 10 10 11 8 6 5 5 5 5 7 7 7 9 9 10 10 10 10 9 10 12 12 12 11 12 14 15 18 14 13 13 15 15 16 16 15 14 14 12 14 13 12 12 11 10 9 10 10 10 9 9 8
11 4 12 13 8 8 13 11 13 5 16 13 6 10 6 4 5 9 6 12 7 5 2 3 3 8 4 5 1 15 16 19 8 6 7 8 10 9 4 5 6 8 8 8 8 9 10 11 10 9 9 9 10 10 10 9 11 10 11 12 15 14 12 13 15 13 16 15 14 13 13 13 12 12 11 11 10 10 10 9 10 10 8 9 9 9
14 5 2 11 0 13 14 6 10 9 5 4 3 2 3 9 4 6 2 4 2 2 0 3 8 3 5 3 4 6 10 10 10 8 5 10 8 5 6 8 9 9 9 7 8 9 10 8 6 6 7 8 7 7 7 8 9 10 11 12 14 15 14 14 14 14 15 14 11 12 13 13 12 10 9 8 7 8 9 10 10 10 10 9 8 7
1 6 1 5 3 16 11 6 6 12 10 9 6 14 9 0 1 4 2 1 4 1 10 2 8 9 7 12 15 8 2 8 7 10 8 10 7 5 9 11 9 10 9 8 9 10 8 4 6 7 6 5 6 6 9 9 9 11 10 10 12 12 9 10 12 12 11 11 11 12 12 11 10 10 11 12 11 10 8 9 9 9 9 9 8 8
15 4 1 6 11 4 1 13 8 9 5 7 11 9 3 1 2 3 3 1 1 5 6 3 14 7 2 14 1 12 6 8 6 8 8 9 5 5 10 10 11 10 10 8 6 6 5 4 5 5 5 5 6 7 6 8 7 7 8 9 10 9 11 10 9 11 11 11 12 11 11 10 11 11 11 10 9 8 8 8 7 7 7 10 10 9
10 6 2 2 3 2 3 4 5 3 3 9 8 4 10 5 8 2 2 3 4 3 4 4 3 7 10 14 1 1 9 13 14 10 6 8 8 9 10 11 10 8 6 6 7 7 6 6 5 5 6 5 5 6 6 5 5 5 5 5 6 10 10 9 8 7 7 8 8 8 9 10 10 9 8 7 6 7 9 10 9 9 10 7 7 8
4 8 0 1 4 3 4 9 13 13 1 1 3 10 3 2 1 6 8 2 5 6 0 8 2 11 8 6 6 8 5 8 11 9 7 7 8 9 9 9 8 6 6 5 6 6 5 4 4 5 5 5 6 5 4 4 3 5 6 5 6 5 4 4 6 7 8 7 7 7 6 7 7 7 8 8 9 9 10 10 10 9 8 10 8 9
5 3 7 1 1 5 6 9 14 12 12 7 6 10 6 2 2 4 1 5 5 3 4 3 6 9 3 9 10 12 12 11 10 11 7 7 9 9 7 6 5 5 5 5 5 5 5 4 4 4 4 3 1 2 3 4 6 5 4 6 6 8 7 7 7 7 7 6 8 7 9 8 8 9 9 9 10 10 10 9 9 9 9 7 9 9
4 2 13 6 6 10 4 0 3 11 14 9 8 8 10 8 5 7 8 3 2 1 4 2 11 11 5 2 10 10 12 12 15 13 12 7 7 6 7 6 5 7 5 4 4 4 5 4 3 2 0 1 1 2 4 4 3 4 6 6 6 5 6 7 7 7 6 6 6 8 7 8 7 8 8 9 9 10 9 8 8 8 6 8 8 9
6 3 10 8 5 6 2 0 0 3 6 9 9 8 8 8 3 4 8 4 1 3 3 2 1 11 4 10 9 9 10 11 13 13 10 8 6 6 7 5 5 5 6 5 4 4 4 3 3 2 2 3 4 2 2 2 4 5 4 4 4 5 5 4 5 4 5 5 6 7 7 7 7 7 9 10 8 8 8 7 7 7 9 8 7 7
8 5 10 4 4 1 2 0 1 2 5 2 6 4 10 13 12 6 2 4 6 2 2 2 5 8 2 2 4 3 5 6 6 1 5 6 7 7 6 6 4 3 3 4 4 4 4 3 2 1 2 3 4 4 5 5 3 3 3 3 4 5 5 5 5 5 5 5 6 6 5 7 6 7 7 8 7 8 7 7 7 8 8 8 7 9
8 3 11 8 5 2 4 1 1 1 1 9 10 5 3 4 5 3 5 2 1 7 7 6 17 3 1 3 3 5 6 8 10 3 1 5 7 6 5 6 4 4 4 3 2 2 3 2 1 2 3 4 4 4 4 5 4 4 4 4 5 5 5 5 4 5 5 5 6 6 6 6 6 7 8 8 7 9 8 8 7 7 8 7 7 6
8 9 15 15 17 15 10 12 16 18 17 2 2 9 9 13 12 8 9 3 8 5 11 7 15 1 3 2 1 5 5 8 10 5 4 4 6 7 7 7 8 3 2 3 3 2 3 3 2 3 3 3 4 5 4 4 5 4 4 6 5 5 5 5 4 5 6 6 7 7 8 8 8 9 9 9 8 8 7 7 6 7 5 7 8 8
4 1 5 11 18 21 20 8 6 12 9 13 11 14 11 7 11 7 5 3 17 6 8 19 16 1 2 2 3 7 6 6 13 4 4 6 7 7 5 8 8 6 4 4 4 3 3 3 4 4 4 4 4 4 4 5 5 5 5 5 5 5 6 6 6 6 6 7 7 7 8 8 8 8 8 7 7 6 6 7 7 8 8 7 8 9
4 6 9 9 10 4 7 4 7 13 11 6 10 9 10 12 9 8 11 19 10 12 12 25 10 14 8 2 5 6 7 7 7 10 7 4 5 7 6 6 9 8 6 4 5 5 5 4 3 4 6 5 6 4 4 4 5 6 7 7 6 5 5 5 6 6 6 7 7 6 7 7 7 7 7 7 6 7 7 7 7 7 6 7 7 8
7 11 11 9 11 6 6 11 14 13 10 10 11 10 13 15 16 18 21 30 10 13 23 5 12 13 9 7 7 7 8 9 10 7 6 4 4 2 3 5 6 7 7 6 7 5 4 4 5 5 5 5 4 5 5 5 5 4 4 4 4 4 5 5 6 6 6 6 6 6 5 5 4 4 4 5 5 5 5 6 6 5 6 6 6 6
5 6 7 10 9 5 3 9 8 15 10 15 15 17 17 15 18 23 26 28 19 20 15 3 5 10 7 10 9 8 5 5 6 4 4 4 2 2 1 5 7 8 7 7 6 4 4 5 6 7 5 5 6 6 5 6 6 7 7 6 5 5 5 6 6 6 5 6 5 4 4 4 4 4 4 5 5 5 5 5 5 6 6 6 6 7
11 8 13 5 5 3 1 3 0 7 12 10 12 16 17 18 19 24 27 23 17 20 22 6 1 6 7 4 5 2 2 2 4 6 6 3 4 4 5 6 7 7 7 7 7 6 4 5 5 6 6 8 7 6 6 6 5 4 4 4 6 7 6 6 6 5 6 6 4 4 4 4 4 4 5 5 5 5 6 6 6 6 6 6 7 8
8 2 4 6 8 3 0 4 3 3 4 10 10 9 14 19 21 24 25 19 11 20 15 7 12 18 3 5 3 2 1 4 6 6 5 5 5 5 5 8 7 8 8 8 7 6 5 6 6 8 10 7 3 4 5 4 4 4 6 6 7 6 5 6 6 7 6 6 5 6 6 6 6 6 6 6 6 6 6 6 6 6 6 6 6 5
6 6 7 8 9 3 3 6 7 6 6 1 8 18 23 25 25 17 7 3 18 21 8 14 22 2 9 8 9 4 3 7 6 6 8 8 7 6 7 7 9 9 9 9 8 8 8 9 8 5 5 3 4 5 6 6 6 8 7 7 6 6 7 8 7 7 7 7 7 7 7 7 7 7 6 5 5 5 5 6 6 6 6 6 4 6
7 9 4 5 8 2 2 9 5 6 8 14 17 23 23 22 20 12 14 17 14 6 15 16 7 6 9 10 14 14 9 8 10 13 11 9 7 6 8 9 10 12 11 8 7 8 7 4 4 5 5 5 5 6 5 7 7 6 5 6 5 7 7 7 7 7 7 7 7 7 6 6 7 6 6 5 5 5 5 6 6 5 5 6 6 6
13 9 6 3 6 5 3 5 7 11 12 18 2 6 14 13 10 19 25 19 13 17 21 15 12 5 11 11 13 15 15 13 10 10 9 8 7 9 10 11 12 12 13 11 8 7 7 6 5 5 6 7 7 5 4 4 4 3 4 5 6 5 6 6 7 7 6 6 6 5 6 6 6 6 6 6 6 6 6 6 5 6 6 7 8 9
6 9 4 4 5 4 4 8 7 13 15 4 2 2 7 15 19 16 19 20 23 20 18 17 21 9 8 10 9 10 14 10 6 7 9 8 6 8 7 9 14 14 12 10 9 7 5 5 7 6 7 3 2 3 4 4 4 5 5 4 5 5 5 6 6 6 6 6 6 6 6 7 7 6 6 7 7 7 7 7 7 7 6 5 4 4
17 8 7 4 0 9 7 11 10 5 6 4 2 4 14 16 14 18 17 19 8 7 9 15 14 14 15 11 10 4 2 4 6 11 6 9 10 10 13 16 17 16 11 4 2 5 5 5 5 7 4 2 2 3 5 4 5 4 5 5 4 5 5 5 7 7 7 7 7 7 7 7 7 7 7 7 7 7 7 7 6 6 5 6 6 6
8 14 8 13 3 3 8 3 1 4 9 17 17 1 1 1 6 4 4 18 10 18 18 17 16 16 14 6 6 3 3 2 10 14 10 10 12 14 15 15 12 2 0 2 2 3 3 4 4 3 3 4 3 3 3 5 6 5 5 5 5 5 5 6 9 8 8 8 7 7 6 6 6 7 6 6 7 6 5 4 4 5 6 8 8 6
2 5 12 13 5 4 5 9 9 11 18 5 6 10 10 13 13 11 5 16 6 15 12 17 17 15 15 15 10 8 5 6 16 16 10 14 15 14 14 13 7 6 5 5 5 4 5 5 5 4 3 2 5 3 4 6 7 6 6 5 5 5 6 10 7 4 5 3 4 4 5 5 5 5 6 6 5 5 6 6 6 5 4 4 5 6
10 7 6 6 7 11 12 9 13 6 9 3 6 5 13 15 15 8 1 16 4 16 16 17 19 19 17 15 12 13 15 14 18 17 15 16 6 4 8 10 8 9 8 5 4 5 2 2 3 2 4 6 4 3 5 5 5 5 5 4 4 6 8 3 1 2 3 4 4 5 5 5 5 5 6 7 6 5 6 5 6 6 6 5 5 6
6 1 8 15 11 7 9 5 3 8 5 4 5 7 10 15 13 9 17 14 7 9 11 16 18 18 16 13 13 15 19 20 8 2 4 6 4 6 7 6 5 5 6 5 6 3 3 3 2 2 1 1 1 3 3 4 5 4 3 3 4 5 1 1 3 3 4 5 5 5 5 4 5 6 4 5 6 5 5 5 6 6 6 7 6 7
2 4 4 6 7 11 10 11 10 5 4 8 3 15 13 10 7 20 8 2 7 5 5 10 13 8 6 13 13 15 14 6 1 2 1 4 8 9 10 4 2 1 0 0 1 3 3 3 1 1 3 3 2 2 3 4 3 2 2 3 3 1 1 3 3 4 4 5 4 4 4 4 4 5 6 6 7 7 6 5 6 7 8 7 8 9
17 14 15 14 5 6 4 6 1 9 9 16 13 1 7 11 6 5 3 1 1 6 9 6 8 6 10 10 14 16 14 4 4 5 4 1 3 6 7 5 6 6 5 3 2 1 3 4 3 2 2 2 2 2 3 3 3 2 3 4 3 1 2 4 4 5 5 5 5 5 5 5 6 6 6 6 7 8 8 7 7 7 7 8 8 9
9 10 7 5 7 13 12 11 14 13 7 16 21 14 7 6 5 9 8 6 1 4 7 5 6 8 9 11 13 12 11 7 5 5 8 5 3 5 4 3 2 1 1 1 1 5 4 4 3 3 2 2 2 2 3 4 4 4 4 5 2 2 3 4 4 5 5 4 4 5 5 5 5 5 6 7 8 8 9 8 7 8 7 8 9 9
11 18 18 21 15 13 15 16 2 6 17 14 16 12 19 11 3 6 7 9 8 5 4 4 8 6 10 11 9 11 8 9 12 8 8 12 7 5 7 7 6 5 5 5 4 4 4 6 7 5 3 2 2 2 2 3 6 5 5 4 3 4 4 4 4 5 5 5 4 4 4 4 4 5 5 5 7 8 7 7 8 8 6 8 8 8
8 5 6 5 6 3 6 0 4 1 4 15 1 2 9 11 4 3 6 7 4 7 11 9 8 8 9 7 8 4 8 10 10 8 8 8 7 6 5 2 2 2 2 3 3 4 5 4 5 5 5 2 1 2 1 1 5 6 4 4 4 4 4 6 6 5 5 4 4 5 5 6 4 4 5 5 5 7 7 9 9 8 8 7 8 8
2 3 5 5 1 8 10 6 7 7 6 9 10 1 1 8 11 7 5 6 6 8 10 3 7 11 12 11 11 11 11 8 8 10 7 6 8 8 7 7 6 6 7 7 6 6 6 5 6 5 5 5 1 1 1 1 1 3 4 6 5 4 5 5 6 6 5 5 5 4 5 7 6 5 5 4 4 5 6 7 7 8 9 8 9 9
4 3 7 3 6 13 14 5 5 5 9 12 10 9 7 8 6 5 5 2 2 2 2 3 3 4 5 7 11 9 9 7 9 9 7 9 9 7 6 6 7 5 4 3 5 5 5 6 6 6 6 6 4 2 1 1 2 3 4 4 5 5 5 5 6 7 6 5 4 5 5 6 7 7 6 6 7 7 6 6 7 9 10 11 11 11
4 10 8 6 6 5 2 2 2 2 5 11 11 6 4 7 9 7 8 4 1 3 3 3 2 6 10 10 8 6 5 6 10 10 10 9 6 6 8 8 6 6 6 6 5 6 8 7 7 6 6 5 3 2 2 2 1 2 4 4 5 6 7 6 4 4 4 4 5 5 4 5 6 6 6 6 5 4 5 9 9 8 7 5 8 11
10 12 5 9 7 9 14 17 16 12 8 11 9 11 8 8 8 12 6 4 4 6 6 6 3 0 4 3 4 7 9 8 8 6 8 8 9 8 5 6 6 6 5 3 4 4 3 4 4 5 5 4 3 3 3 2 1 1 1 4 4 5 7 6 6 5 4 4 5 5 5 5 5 5 6 6 6 6 2 3 3 2 6 7 6 7
14 14 13 14 15 17 21 6 12 6 2 6 14 13 13 9 9 10 11 12 11 8 7 7 5 4 5 7 5 8 10 9 7 5 5 5 6 4 5 7 9 7 7 6 6 5 5 4 3 3 4 4 4 3 3 3 1 1 1 2 3 4 5 7 6 4 4 4 5 6 6 5 5 5 5 6 6 6 6 5 3 6 6 3 5 6
Wind_Direction
148 161 190 203 195 187 192 200 178 151 142 137 158 173 214 214 232 139 212 304 31 315 249 247 267 254 248 243 247 259 149 214 244 246 235 234 224 223 228 230 231 233 234 231 224 223 215 210 208 209 209 217 216 215 207 204 208 207 205 196 207 201 197 194 198 198 195 195 196 206 202 211 206 207 204 207 207 205 208 203 206 200 201 199 197 195
174 191 209 199 193 190 196 191 131 125 136 155 170 183 221 186 227 204 258 325 344 164 287 274 281 266 254 263 259 268 165 231 221 230 238 237 229 227 227 236 233 235 263 273 248 227 203 205 204 202 210 210 213 218 209 212 211 208 208 208 206 197 201 203 201 198 201 204 206 202 212 212 204 203 202 209 206 207 202 201 205 207 204 202 202 195
195 209 190 177 170 163 184 180 165 165 166 168 170 178 200 230 85 277 284 311 293 178 259 252 261 264 254 246 258 253 241 239 221 211 225 222 233 233 229 236 244 249 240 237 249 231 215 211 206 203 210 212 215 214 212 214 207 207 208 213 207 206 202 206 201 198 206 206 208 205 210 204 206 211 207 210 202 196 201 203 206 205 205 203 206 197
198 227 174 160 148 172 183 176 158 152 150 155 118 147 216 125 163 270 224 315 276 193 275 328 301 274 268 253 253 260 237 250 245 223 232 210 219 227 226 221 228 238 241 236 238 229 212 207 208 207 211 213 208 214 219 214 210 207 211 211 210 213 207 202 201 204 206 206 207 211 205 198 198 200 195 201 200 198 200 209 205 209 205 199 203 201
202 149 149 162 180 181 181 173 167 170 199 203 182 182 139 140 156 168 226 292 287 305 177 281 291 276 236 253 263 259 244 232 251 235 253 247 234 234 248 269 229 231 225 229 240 228 211 209 211 207 210 202 207 213 214 208 204 205 207 208 208 210 206 202 200 201 199 191 193 194 190 186 200 179 189 203 211 204 204 209 205 208 197 200 202 199
304 191 131 144 157 160 154 184 191 170 206 201 243 177 149 137 128 77 11 24 14 299 194 156 316 259 212 220 229 243 245 240 245 231 241 239 230 233 237 236 237 240 235 231 235 224 212 211 217 215 210 206 215 216 217 207 206 205 208 206 206 207 206 206 203 197 189 194 193 188 193 194 203 208 197 200 208 208 207 213 200 187 193 197 201 201
173 177 163 168 162 169 178 194 195 166 192 172 216 137 143 136 141 115 266 79 252 230 271 105 223 267 42 241 222 227 246 246 251 231 238 239 240 230 230 234 234 228 237 237 247 239 211 218 215 212 207 210 213 220 209 205 212 211 211 206 203 205 208 205 201 190 190 199 201 201 204 205 208 215 219 218 219 217 216 196 195 198 187 195 199 203
143 157 153 153 157 169 178 204 195 176 155 224 134 137 134 128 147 184 143 155 262 291 283 189 211 272 278 249 214 240 253 258 260 253 238 239 236 237 231 232 231 228 229 229 231 230 222 218 206 213 211 207 213 208 189 208 210 208 209 201 201 204 207 203 195 192 195 201 203 205 208 209 214 214 221 211 216 205 190 193 202 190 194 194 199 203
138 154 162 162 171 173 203 186 128 168 169 215 171 133 166 163 177 158 142 165 219 359 274 229 32 308 250 282 176 178 256 252 245 247 250 240 237 239 237 235 232 230 227 223 229 230 218 216 214 217 214 215 212 188 201 208 207 208 206 205 203 206 206 204 195 196 200 204 202 204 207 214 219 218 222 209 194 191 182 198 195 196 198 195 198 198
256 177 175 163 163 197 169 140 156 163 173 203 159 151 137 110 81 124 128 140 258 147 254 196 162 233 274 217 205 191 235 249 238 236 247 238 233 233 235 236 235 236 236 232 233 237 232 223 225 226 241 220 211 207 207 209 203 207 205 204 203 209 206 200 197 198 202 202 200 205 209 214 216 210 210 189 200 195 185 204 202 200 201 199 198 200
161 112 151 151 197 167 127 139 161 173 143 127 114 100 98 55 77 31 84 164 32 254 270 114 199 144 295 215 208 178 222 240 275 263 259 261 247 247 240 242 245 239 238 237 238 247 247 233 219 200 212 222 214 203 199 203 200 199 201 204 207 212 203 197 200 195 202 200 202 209 210 212 214 206 200 201 205 191 191 206 206 202 203 195 199 195
82 127 152 248 115 92 121 91 136 160 137 138 145 129 116 38 58 57 286 43 191 251 69 173 156 142 231 283 207 220 241 184 197 220 238 249 241 235 232 228 237 243 251 246 236 246 242 244 233 207 222 218 209 191 199 204 197 195 199 199 208 210 204 201 199 197 203 201 207 212 211 212 212 203 201 206 208 198 202 204 206 198 190 197 195 190
77 165 275 31 283 145 154 132 87 168 152 147 135 142 143 166 84 254 77 228 214 234 195 81 148 106 234 238 318 304 272 271 239 223 222 231 240 236 248 242 240 247 254 247 241 244 245 234 228 219 228 216 199 201 201 200 196 196 197 197 202 210 203 201 196 200 203 203 208 210 211 213 208 206 206 206 208 199 202 199 200 189 199 192 193 195
273 161 215 185 92 203 153 157 140 152 200 168 170 157 145 150 179 211 203 339 316 270 252 137 125 256 268 299 206 238 271 252 231 226 234 242 249 250 235 259 270 258 245 245 240 240 240 232 230 223 222 212 210 211 206 201 195 196 199 200 203 213 200 199 198 202 203 208 210 208 209 210 205 210 207 207 206 201 199 193 198 197 199 198 201 195
158 206 224 171 199 178 172 178 174 150 172 192 170 181 186 155 171 199 176 192 207 201 182 270 107 231 146 253 237 205 213 239 247 256 248 242 249 258 272 281 279 273 256 238 239 234 232 233 227 224 218 217 214 212 208 202 202 196 201 201 208 213 204 199 203 202 207 211 211 209 210 211 209 210 207 209 205 198 194 193 195 200 197 200 201 201
195 189 291 164 135 154 173 175 147 122 132 217 173 68 234 234 127 151 198 160 212 177 296 205 209 199 188 250 263 230 283 289 287 274 242 268 261 251 267 251 246 248 252 237 237 249 245 238 231 226 223 220 218 215 211 209 203 200 205 204 208 210 205 201 202 207 209 212 209 210 210 213 210 209 208 209 200 202 194 191 193 196 196 200 199 196
70 229 38 55 106 159 180 135 185 149 171 188 141 211 207 165 118 94 45 93 89 50 247 126 298 272 312 289 268 275 206 280 286 283 284 264 245 235 251 251 243 241 244 242 233 237 245 233 232 230 224 222 217 214 211 210 203 203 200 203 210 214 210 206 207 211 209 212 209 212 212 209 208 205 206 207 203 197 188 187 193 191 196 195 192 192
165 160 34 149 175 209 120 173 170 189 134 118 201 206 98 116 118 140 209 11 139 197 260 126 233 273 83 277 247 235 244 258 253 255 250 259 279 226 243 244 240 236 234 241 245 246 242 224 228 226 226 216 211 212 216 216 209 208 206 205 208 208 209 212 204 207 207 207 211 209 208 208 206 207 209 206 198 187 184 192 190 188 186 196 193 185
120 87 231 325 122 167 82 118 164 216 15 181 198 150 159 216 233 260 101 242 181 233 266 288 258 265 207 235 357 300 231 250 262 254 245 265 252 243 249 250 248 245 258 254 249 250 241 225 223 219 217 220 220 214 213 211 198 202 212 214 210 212 214 211 207 207 211 209 210 207 205 203 205 206 204 198 188 182 192 194 193 193 197 185 178 180
86 124 72 345 135 202 135 171 189 191 213 77 116 184 206 87 293 150 200 184 110 237 39 289 32 257 188 230 180 239 236 243 259 271 256 236 247 246 247 246 245 247 241 248 253 256 248 237 218 213 214 216 215 214 213 196 181 199 206 202 213 229 220 209 208 202 208 204 201 201 193 199 197 196 194 191 187 191 198 197 194 194 186 188 181 187
152 123 142 181 236 138 171 207 201 174 171 183 162 183 190 204 254 118 174 166 179 177 184 273 305 262 269 196 184 207 221 247 247 253 239 248 253 249 253 264 272 257 250 250 251 254 255 249 232 226 228 238 274 225 187 188 195 201 189 202 202 201 206 207 206 197 207 192 203 194 197 195 192 195 195 194 195 197 200 198 194 194 192 172 186 178
106 155 144 156 127 201 218 185 176 173 189 194 178 190 190 161 186 174 241 48 117 150 242 164 261 268 257 206 193 194 220 221 246 249 258 244 246 257 266 266 263 288 287 267 264 265 272 283 281 259 286 352 283 240 207 205 195 197 198 205 198 201 207 203 202 200 197 196 195 199 197 198 195 193 192 195 195 201 197 193 191 188 171 183 187 182
135 99 116 151 194 156 128 321 207 286 187 191 183 214 177 189 123 195 204 243 34 244 111 155 313 282 231 184 200 206 210 222 228 241 242 265 272 264 265 258 265 245 264 276 272 270 266 264 271 268 223 206 199 218 224 216 210 211 206 195 196 191 214 195 198 195 189 190 193 200 198 191 192 188 193 196 196 198 192 189 185 176 179 184 183 185
96 106 116 64 73 324 354 250 322 274 144 175 253 195 166 197 198 170 138 184 172 222 201 268 268 251 322 309 244 280 267 260 276 329 231 261 272 286 283 289 288 307 279 263 254 258 259 260 263 209 204 194 189 202 201 210 217 216 199 196 183 199 199 185 184 181 181 188 196 193 186 191 189 188 191 196 193 193 190 186 183 180 185 184 173 182
132 220 117 113 69 352 357 0 306 286 228 212 203 182 174 102 140 161 102 80 228 211 158 135 241 297 252 331 292 268 289 270 261 278 254 268 283 283 296 289 278 265 285 311 326 308 318 316 281 230 214 202 204 206 204 201 204 195 202 184 190 202 197 190 181 174 183 179 184 185 184 189 184 189 193 195 190 195 188 186 181 181 184 171 174 177
75 170 146 154 161 170 184 196 196 196 199 147 82 154 189 176 164 142 199 152 236 191 164 203 245 47 282 310 308 269 295 298 275 241 259 238 268 294 320 309 284 273 281 283 268 270 252 260 283 268 241 225 217 205 196 197 198 197 194 203 193 186 192 195 180 185 179 183 181 186 187 187 187 192 193 192 191 190 182 177 174 175 177 172 174 172
120 139 189 176 174 185 195 186 36 78 84 187 197 175 182 177 172 158 129 162 231 184 185 236 226 47 143 185 246 260 260 247 275 254 211 261 263 272 260 272 281 295 287 280 275 271 291 275 256 254 263 244 224 207 200 190 194 194 195 205 207 199 187 185 180 183 182 186 189 187 193 188 191 189 189 187 183 176 173 175 176 173 177 180 173 173
106 167 205 181 212 179 106 138 146 135 164 165 127 173 157 155 162 164 191 225 197 91 230 240 199 226 227 280 262 259 264 265 273 282 253 219 272 260 259 277 296 298 283 287 292 281 266 279 280 251 244 245 243 228 213 199 195 192 192 201 201 195 187 179 183 184 187 187 194 195 192 193 189 186 186 181 176 175 177 174 173 180 173 168 170 172
157 185 201 171 208 169 131 142 149 147 156 157 160 149 163 170 177 189 212 228 172 190 230 234 159 214 218 221 226 229 227 224 236 257 276 229 212 263 283 281 278 273 282 283 256 251 251 258 258 262 245 236 234 231 220 207 206 205 209 209 194 184 194 176 182 187 188 190 199 200 190 185 184 172 165 164 162 165 167 170 171 165 161 170 167 162
145 221 180 185 186 136 181 154 159 147 161 163 174 176 182 178 192 205 219 228 205 226 225 133 190 200 195 211 210 231 227 244 261 274 303 318 300 305 282 265 259 259 262 265 268 247 223 230 239 242 250 251 229 225 215 210 206 201 196 197 189 188 191 165 191 183 190 194 200 186 175 168 157 158 153 156 160 160 156 158 159 159 162 169 163 158
174 208 145 158 138 164 44 41 69 138 145 181 192 183 182 187 201 213 223 230 218 239 240 210 24 274 270 220 251 267 303 298 316 281 266 288 286 256 253 257 256 258 261 273 278 269 254 252 253 258 256 250 234 221 219 217 207 193 193 190 187 196 185 175 184 188 187 195 182 171 162 161 167 153 168 171 162 158 161 164 164 165 167 164 162 159
179 244 110 121 150 227 1 124 93 60 135 166 187 194 195 197 206 217 219 219 195 231 231 253 269 246 198 248 255 287 301 258 258 273 293 271 243 231 230 246 254 256 252 251 257 269 268 252 245 237 237 245 235 206 216 218 200 180 206 196 197 188 167 177 183 186 193 191 176 175 175 174 170 176 182 176 179 172 171 163 166 170 166 158 157 154
162 125 136 149 169 202 340 127 104 90 69 337 221 202 202 208 211 223 250 169 208 220 193 212 236 109 162 197 230 256 230 247 246 249 254 251 237 211 218 233 244 250 245 232 226 231 230 231 234 249 273 267 224 212 208 187 181 203 201 196 194 155 172 183 186 187 188 188 183 186 182 175 177 182 180 185 173 166 158 165 167 165 159 164 149 136
119 124 135 150 168 112 121 124 126 88 199 222 214 205 197 205 212 216 222 220 223 170 222 230 224 174 170 188 210 227 232 233 216 232 216 215 207 222 239 239 242 247 251 249 239 239 253 272 265 247 240 241 232 216 210 189 196 204 186 173 156 172 182 181 192 191 193 187 191 185 178 175 174 178 177 163 154 153 160 166 176 164 153 139 137 147
139 127 140 138 99 145 181 109 109 206 225 235 172 156 202 212 199 210 229 222 212 211 228 230 233 147 185 194 202 213 225 235 234 235 243 223 196 198 214 227 238 246 245 241 246 247 244 247 265 266 268 251 230 219 191 212 199 162 149 157 164 178 177 192 186 197 193 191 191 179 176 173 175 171 162 160 157 161 167 171 158 154 158 156 158 156
141 138 144 55 115 61 109 156 188 221 230 246 202 233 169 186 208 211 242 233 218 210 216 221 229 205 202 210 217 211 217 237 277 264 246 245 199 208 210 229 236 232 237 235 226 239 224 215 223 229 245 258 176 204 192 195 167 160 171 160 164 171 186 188 194 198 189 194 187 182 175 171 172 169 164 164 165 169 171 168 165 160 154 145 144 138
172 142 144 135 18 154 189 187 214 7 347 263 216 186 174 197 197 193 224 245 191 208 204 228 227 220 219 214 213 233 9 14 295 275 237 225 226 216 218 234 241 242 237 245 182 229 217 212 207 227 227 245 182 184 196 166 157 154 145 155 164 164 182 188 206 203 193 195 186 182 178 178 173 173 171 169 169 175 172 162 153 149 146 144 150 150
185 167 179 156 230 137 138 174 354 263 255 238 224 198 164 75 87 109 174 269 186 207 205 215 221 219 223 208 221 189 76 208 260 249 247 239 223 225 230 237 246 274 92 201 247 253 235 232 240 251 205 229 221 206 170 153 151 150 152 165 166 170 190 198 217 204 193 196 183 179 175 174 172 169 168 168 176 173 164 151 139 151 158 154 152 151
58 155 169 172 151 93 144 177 201 203 232 235 131 149 153 127 123 120 81 265 218 187 189 204 215 214 206 201 195 130 129 217 241 237 225 234 228 216 227 238 250 258 250 220 204 217 229 225 208 212 182 193 232 204 163 155 151 155 170 172 176 182 199 216 222 207 197 176 153 156 160 161 163 162 162 169 169 160 156 156 154 143 139 134 132 132
137 151 100 85 154 189 179 180 211 210 234 208 168 152 164 135 124 97 23 256 182 186 186 194 207 210 209 200 165 165 189 221 237 237 216 224 215 176 212 235 240 244 245 243 243 217 213 161 118 134 184 204 228 146 160 152 151 162 170 177 163 192 218 235 177 153 127 131 142 145 148 157 162 166 168 169 160 155 153 141 136 148 142 133 129 125
151 144 185 186 182 183 182 227 346 282 258 229 205 160 143 143 121 133 210 232 192 189 192 188 205 207 200 183 161 196 207 212 226 248 166 206 215 245 239 212 213 205 220 218 236 179 167 175 177 179 210 8 94 136 140 147 143 171 163 149 177 223 233 169 145 135 135 129 132 142 151 156 164 161 158 151 149 136 128 139 142 137 136 129 122 122
92 96 342 68 166 181 190 201 228 257 235 186 223 164 160 93 187 203 214 123 150 175 207 187 209 212 156 177 189 212 225 198 159 17 315 225 198 222 243 232 155 135 63 296 175 152 172 147 119 74 55 30 55 86 118 123 129 119 124 149 207 238 201 137 135 127 122 131 134 137 141 145 137 139 142 137 137 140 141 141 143 146 142 139 142 142
177 174 184 187 169 48 54 200 309 265 245 147 123 134 284 176 221 120 138 35 169 160 163 206 195 192 157 186 202 212 227 205 206 217 251 260 196 233 241 247 228 207 186 163 171 191 140 145 127 84 52 14 49 73 103 111 124 129 137 182 212 226 154 137 132 130 129 130 133 142 146 147 147 145 142 145 149 145 144 145 142 140 139 139 136 133
174 182 179 209 183 171 180 187 207 224 95 149 142 175 202 200 193 149 124 154 237 164 178 166 217 189 184 181 198 218 224 218 260 250 242 252 240 258 288 279 266 266 186 186 162 165 143 128 118 106 67 49 46 65 94 128 140 153 169 204 199 173 135 124 123 120 121 126 133 134 141 148 145 145 147 149 147 144 145 149 147 145 149 149 145 145
188 197 185 191 189 182 198 204 78 155 154 170 171 181 185 190 149 186 139 156 168 234 200 149 210 193 188 193 194 200 213 217 221 208 200 231 223 210 224 229 213 206 193 182 170 155 155 157 152 137 102 53 63 54 90 137 153 161 186 204 164 164 139 127 118 116 119 125 129 126 125 117 127 138 140 147 146 143 145 143 147 145 153 149 149 151
208 192 64 63 228 340 347 208 170 18 186 188 71 54 161 183 211 142 158 150 227 170 168 181 196 187 194 184 170 209 214 218 215 223 230 240 223 226 222 229 211 177 154 127 133 154 147 124 127 136 134 108 36 67 57 121 149 164 208 156 167 154 140 131 121 115 122 123 127 135 134 121 111 122 138 147 152 153 157 156 160 155 157 157 157 158
235 157 163 181 217 169 239 203 167 185 186 197 193 200 204 189 194 173 171 193 190 167 191 228 174 184 179 168 183 193 213 208 205 221 220 235 234 226 206 206 204 187 180 183 180 147 136 143 140 155 156 161 178 78 84 118 152 172 152 160 156 142 135 128 125 124 133 140 140 142 144 141 143 141 141 146 140 145 155 159 159 156 160 166 162 162
259 200 165 190 155 182 225 197 174 181 186 202 194 183 190 204 192 184 209 183 124 171 182 158 104 114 111 173 198 187 214 194 191 212 208 216 222 218 211 207 199 192 212 176 156 155 141 158 164 171 174 183 193 191 149 153 151 146 144 147 144 139 129 131 144 150 158 154 153 159 159 150 152 151 154 163 159 155 159 171 167 168 172 173 170 164
154 131 203 165 170 266 345 356 239 116 223 221 222 227 186 172 184 207 217 186 137 129 159 177 175 167 182 198 185 191 184 213 207 199 194 207 211 213 212 201 196 188 165 164 180 173 177 175 177 181 174 185 172 172 165 156 156 144 149 154 148 150 139 140 136 129 136 146 145 159 160 154 159 159 155 156 160 168 176 174 176 178 185 201 184 177
114 178 173 148 180 203 209 206 153 161 214 226 226 217 222 217 187 204 181 161 188 201 201 186 220 230 199 208 165 180 203 220 211 183 203 204 206 206 184 173 176 170 181 181 159 181 173 179 169 167 181 179 163 166 170 159 139 144 143 148 158 151 143 139 132 134 151 160 161 157 152 150 157 158 158 158 157 149 106 56 148 190 183 184 193 199
176 179 165 187 192 212 218 180 172 170 194 200 190 207 212 197 177 190 197 210 212 207 178 168 177 213 229 230 196 177 207 215 219 189 197 207 220 205 185 170 167 175 183 169 154 185 183 184 169 151 169 180 167 166 165 164 159 142 132 145 157 151 142 142 140 144 153 170 179 174 166 160 159 167 160 161 155 151 146 118 78 86 101 130 169 179